Location: Bremen
(53.0830°N, 8.8000°E)
Time: 19:42:33
(UTC+02:00)

X-37B - Pass Details

Date: 08 August 2021
Orbit: 381 x 393 km, 45.0° (Epoch: 29 August)

Event Time Altitude Azimuth Distance (km) Brightness Sun altitude
Exits shadow 05:09:43 - 235° (SW) 1,502 2.9 -6.4°
Reaches altitude 10° 05:10:03 10° 232° (SW) 1,397 2.7 -6.3°
Maximum altitude 05:12:20 19° 185° (S) 998 2.3 -6.1°
Drops below altitude 10° 05:14:37 10° 138° (SE) 1,397 3.5 -5.8°
Sets 05:17:04 0° 119° (ESE) 2,250 4.8 -5.5°
